User: anonymous   Login
Location: Albany
(35.0000°S, 118.0000°E)
Time: 13:35:02
(UTC-04:00)
Language:

CZ-4B R/B - Orbit

View from above orbital plane
View from above orbital plane
View from above satellite
View from above satellite

Ground track
Ground track

The orbit data is extracted from the following two-line orbital elements,

1 33410U 08053C   15187.46115306  .00003188  00000-0  24375-3 0  9999
2 33410 097.6319 158.6271 0125888 059.6302 301.7295 14.96503153364260
Epoch (UTC): 06 July 2015 11:04:03
Eccentricity: 0.0125888
inclination: 97.6319°
perigee height: 490 km
apogee height: 665 km
right ascension of ascending node: 158.6271°
argument of perigee: 59.6302°
revolutions per day: 14.96503153
mean anomaly at epoch: 301.7295°
orbit number at epoch: 36426

The dashed part of the orbit path shows where the satellite is in the earth's shadow,  

DLR